Regional Weather Roundup
Issued by NWS

Home | Current Version | Previous Version | Graphics & Text | Print | Product List | Glossary Off
Versions: 1 2 3 4 5 6 7 8 9 10 11 12 13 14 15 16 17 18 19 20 21 22 23 24 25 26 27 28 29 30 31 32 33 34 35 36 37 38 39 40 41 42 43 44 45 46 47 48 49 50

081
ASUS45 KBOU 021807
RWRCO

WEATHER ROUNDUP FOR COLORADO
NATIONAL WEATHER SERVICE DENVER/BOULDER CO
1200 PM MDT MON MAY 02 2016

NOTE: "FAIR" INDICATES FEW OR NO CLOUDS BELOW 12000 FEET WITH NO
SIGNIFICANT WEATHER AND/OR OBSTRUCTIONS TO VISIBILITY.

COZ001>005-013-030-031-021900-
...NORTHWEST COLORADO...

CITY           SKY/WX    TMP DP  RH WIND       PRES   REMARKS
CRAIG          FAIR      52  25  35 W9        30.26F
HAYDEN         FAIR      48  25  40 W7        30.26F
MEEKER         FAIR      54  28  36 VRB3      30.25F
MOUNT WERNER   NOT AVBL
STEAMBOAT SPGS FAIR      49  30  47 SW3       30.26S
WALDEN         FAIR      43  21  42 S5        30.27S
$$

COZ006>008-011-021900-
...WEST CENTRAL VALLEYS...

CITY           SKY/WX    TMP DP  RH WIND       PRES   REMARKS
GRAND JUNCTION PTSUNNY   58  37  45 W6        30.22F
MONTROSE       FAIR      54  36  50 MISG      30.26F
EAGLE          MOSUNNY   52  23  32 CALM      30.24F
RIFLE          FAIR      55  32  41 CALM      30.22F
DELTA          NOT AVBL
NUCLA          NOT AVBL
$$

COZ017>023-064>068-021900-
...SOUTHWEST COLORADO...

CITY           SKY/WX    TMP DP  RH WIND       PRES   REMARKS
DURANGO        FAIR      48  34  58 VRB3      30.27F
CORTEZ         PTSUNNY   52  35  52 W8        30.26F
PAGOSA SPRINGS PTSUNNY   44  31  61 SW3       30.29F
TELLURIDE      CLOUDY    42  30  61 W5        30.31F
WOLF CREEK PAS CLOUDY    27  27 100 CALM      30.38S
$$

COZ009-010-012-014-032>034-037-058>063-021900-
...CENTRAL COLORADO...

CITY           SKY/WX    TMP DP  RH WIND       PRES   REMARKS
ASPEN          FAIR      50  23  34 N8        30.23F
BUENA VISTA    FAIR      47  29  50 SE7       30.25F
COPPER MTN     NOT AVBL
BERTHOUD PASS  FAIR      21  10  63 N13G23    30.33R WCI   9
COTTONWOOD PAS FAIR      43  28  56 E5        30.29S
GUNNISON       FAIR      45  30  57 S5        30.29F
KREMMLING      FAIR      50  21  32 N3        30.27S
LEADVILLE      FAIR      38  17  42 VRB6      30.27F
MONARCH PASS   PTSUNNY   27  23  86 MISG      30.43S
SALIDA         FAIR      49  30  47 CALM      30.31F
SUNLIGHT       CLOUDY    34  28  80 NW5       30.38  WCI  30
WILKERSON PASS FAIR      32  23  69 CALM      30.33S
$$

COZ069>075-021900-
...SAN LUIS VALLEY/SANGRE DE CRISTO MOUNTAINS...

CITY           SKY/WX    TMP DP  RH WIND       PRES   REMARKS
ALAMOSA        PTSUNNY   45  30  55 E5        30.27F
LA VETA PASS   CLOUDY    37  32  81 SW6       30.30S
SAGUACHE       CLOUDY    43  32  65 S6        30.28F
$$

COZ035-036-038>040-021900-
...NORTHERN COLORADO FRONT RANGE...

CITY           SKY/WX    TMP DP  RH WIND       PRES   REMARKS
DENVER INTL AP FAIR      48  28  46 VRB5      30.22F
DMNS CITY PARK   N/A     51  26  37 N7        30.20F
AURORA         FAIR      45  31  57 VRB3      30.22F
FRONT RANGE AP MOSUNNY   46  30  53 SW5       30.22F
ERIE MUNI ARPT FAIR      51  23  33 S3        30.21F
BOULDER MUN AP FAIR      50  19  29 CALM      30.20F
CENTENNIAL     FAIR      45  26  47 VRB5      30.22F
BROOMFIELD     MOSUNNY   48  19  32 CALM      30.22F
FORT COLLINS   FAIR      48  25  40 N5        30.23S
LONGMONT       FAIR      55  28  35 NE5       30.22F
$$

COZ041-046-047-076>085-087-088-021900-
...PIKES PEAK/PALMER DIVIDE AND SOUTHERN FOOTHILLS...

CITY           SKY/WX    TMP DP  RH WIND       PRES   REMARKS
COLO. SPRINGS  FAIR      50  23  34 SW6       30.24F
A. F. ACADEMY  FAIR      45  19  36 NE3       30.22F
SCHRIEVER AFB  NOT AVBL
ELLICOTT       FAIR       1  32 100 W3        30.23F
FALCON         FAIR      45  27  49 SW5       30.25F
FORT CARSON    FAIR      49  28  44 VRB5      30.22F
LIMON          FAIR      41  31  67 W9        30.24F
MONUMENT HILL  FAIR      37  27  65 W3        30.25S
TRINIDAD       FAIR      47  33  58 CALM      30.25F
$$

COZ042>045-048>051-090-091-021900-
...NORTHEAST COLORADO...

CITY           SKY/WX    TMP DP  RH WIND       PRES   REMARKS
GREELEY ARPT   FAIR      50  27  40 NW3       30.23S
AKRON          FAIR      50  29  44 W6        30.21F
BURLINGTON     FAIR      55  29  36 NW13      30.21F
WRAY           NOT AVBL
STERLING       FAIR      55  32  41 W9        30.18F
HOLYOKE        NOT AVBL
FORT MORGAN    FAIR      53  24  32 W7        30.22F
$$

COZ086-089-092>099-021900-
...SOUTHEAST COLORADO...

CITY           SKY/WX    TMP DP  RH WIND       PRES   REMARKS
PUEBLO         FAIR      51  30  44 CALM      30.24F
LA JUNTA       FAIR      53  32  44 NW6G18    30.24F
LAMAR          FAIR      55  30  38 NW10G18   30.21F
SPRINGFIELD      N/A     53  34  48 NW15G25   30.23F
$$




USA.gov is the U.S. government's official web portal to all federal, state and local government web resources and services.